Regional Weather Roundup
Issued by NWS

Home | Current Version | Previous Version | Text Only | Print | Product List | Glossary On
Versions: 1 2 3 4 5 6 7 8 9 10 11 12 13 14 15 16 17 18 19 20 21 22 23 24 25 26 27 28 29 30 31 32 33 34 35 36 37 38 39 40 41 42 43 44 45 46 47 48 49 50
000
ASPQ40 PGUM 021214
RWRPQ
WEATHER ROUNDUP FOR THE MARIANAS AND MICRONESIA
NATIONAL WEATHER SERVICE TIYAN GU
1000 PM CHST SUN AUG 02 2015

GUZ001>004-021300-
MARIANA ISLANDS-

CITY           SKY/WX    TMP DP  RH WIND       PRES   REMARKS
GUAM AIRPORT   LGT RAIN  79  77  94 W15       29.62S
ANDERSEN AFB   HVY RAIN  75  73  94 W17G28    29.60S
ROTA AIRPORT   NOT AVBL
TINIAN AP      NOT AVBL
SAIPAN AP      NOT AVBL

$$

PMZ161-021300-
REPUBLIC OF PALAU-

CITY           SKY/WX    TMP DP  RH WIND       PRES   REMARKS
KOROR AP       LGT RAIN  79  77  94 W16G25    29.77S
KOROR WSO      CLOUDY    81  75  83 W7G23     29.82R

$$

PMZ171>174-021300-
FEDERATED STATES OF MICRONESIA-

CITY           SKY/WX    TMP DP  RH WIND       PRES   REMARKS
YAP AIRPORT    MOCLDY    82  77  83 SW8       29.75F HX  91
CHUUK AP       CLOUDY    79  77  94 VRB6      29.81R
POHNPEI AP     CLOUDY    79  77  94 S5        29.84S
POHNPEI WSO    CLOUDY    77  75  94 SE2       29.89S
KOSRAE AP      NOT AVBL

$$

PMZ181-021300-
REPUBLIC OF THE MARSHALL ISLANDS-

CITY           SKY/WX    TMP DP  RH WIND       PRES   REMARKS
KWAJALEIN AP   MOCLDY    82  75  78 NE18      29.84S
MAJURO AP      NOT AVBL
MAJURO WSO     MOCLDY    84  79  84 E8        29.79F HX  96

$$



USA.gov is the U.S. government's official web portal to all federal, state and local government web resources and services.